Location: Unspecified
(43.4354°N, 0.0000°E)
Time: 20:25:36
(UTC+00:00)

EO-88 - Visible Passes

Search period start: 22 July 2019 00:00
Search period end: 01 August 2019 00:00
Orbit: 484 x 494 km, 97.4° (Epoch: 21 July)

Date Brightness Start Highest point End Pass type
(mag) Time Alt. Az. Time Alt. Az. Time Alt. Az.
22 Jul ? 21:04:30 25° SE 21:06:05 39° ENE 21:09:28 10° N visible
22 Jul ? 22:38:57 12° WSW 22:39:48 13° W 22:41:36 10° WNW visible
23 Jul ? 20:41:19 15° ESE 20:43:12 21° ENE 20:45:59 10° NNE visible
23 Jul ? 22:15:46 22° WSW 22:16:37 24° W 22:19:37 10° NW visible
24 Jul ? 20:18:55 10° E 20:20:24 12° ENE 20:21:53 10° NE visible
24 Jul ? 21:52:34 37° SW 21:53:31 47° W 21:57:01 10° NNW visible
25 Jul ? 21:29:23 43° SSE 21:30:29 83° ENE 21:34:05 10° N visible
26 Jul ? 21:06:11 28° ESE 21:07:32 41° ENE 21:10:56 10° N visible
26 Jul ? 22:40:39 12° WSW 22:41:16 13° W 22:42:56 10° WNW visible
27 Jul ? 20:43:00 16° ESE 20:44:38 22° ENE 20:47:29 10° NNE visible
27 Jul ? 22:17:27 22° WSW 22:18:05 23° W 22:21:01 10° NW visible
28 Jul ? 20:20:14 10° E 20:21:50 13° ENE 20:23:27 10° NE visible
28 Jul ? 21:54:16 39° SW 21:54:57 45° W 21:58:26 10° NNW visible
29 Jul ? 21:31:04 51° SSE 21:31:55 87° ENE 21:35:32 10° NNW visible
30 Jul ? 21:07:53 32° ESE 21:08:57 42° ENE 21:12:23 10° N visible
30 Jul ? 22:42:20 12° W 22:42:42 12° W 22:44:14 10° WNW visible
31 Jul ? 20:44:41 18° ESE 20:46:04 23° ENE 20:48:57 10° NNE visible
31 Jul ? 22:19:09 22° WSW 22:19:30 23° W 22:22:25 10° NW visible
